Regional Weather Roundup
Issued by NWS

Home | Current Version | Previous Version | Text Only | Print | Product List | Glossary Off
Versions: 1 2 3 4 5 6 7 8 9 10 11 12 13 14 15 16 17 18 19 20 21 22 23 24 25 26 27 28 29 30 31 32 33 34 35 36 37 38 39 40 41 42 43 44 45 46 47 48 49 50

000
ASUS43 KIND 241709
RWRIN

WEATHER ROUNDUP FOR INDIANA
NATIONAL WEATHER SERVICE INDIANAPOLIS IN
100 PM EDT THU JUL 24 2014

NOTE: "FAIR" INDICATES FEW OR NO CLOUDS BELOW 12,000 FEET WITH NO
SIGNIFICANT WEATHER AND/OR OBSTRUCTIONS TO VISIBILITY.

* - STATION DOES NOT REPORT WEATHER SUCH AS PRECIPITATION OR FOG.

+ - STATION NOT QUALITY CONTROLLED BY THE NATIONAL WEATHER SERVICE.
    USE DATA WITH CAUTION...ESPECIALLY DEWPOINT AND RELATIVE
    HUMIDITY OBSERVATIONS.

INZ001>003-010>013-019-020-241800-
NORTHWEST INDIANA

CITY           SKY/WX    TMP DP  RH WIND       PRES   REMARKS
GARY /AIRPORT/ MOSUNNY   72  59  64 N5        30.18R
KNOX *+        MOSUNNY   71  52  50 NE8       30.14S
LA PORTE +     PTSUNNY   71  50  48 NE6       30.16S
MICHIGAN CITY+ SUNNY     70  52  52 N12G17    30.17R
MONTICELLO +   MOSUNNY   71  56  57 E7        30.13S
RENSSELAER +   PTSUNNY   70  57  64 N7        30.15S
VALPARAISO     PTSUNNY   70  52  52 N8        30.16S

$$

LMZ046-743>745-241800-
SOUTHERN LAKE MICHIGAN

STATION/POSITION TIME  TEMP WIND        PRES
                       AIR  DIR/SP/G
                 (UTC) (F)  (DEG/KT/KT) (MB)
MICHIGAN CITY    1700   67  350/ 11/ 13   N/A

$$

INZ004-005-014>016-021>024-241800-
NORTH CENTRAL INDIANA

CITY           SKY/WX    TMP DP  RH WIND       PRES   REMARKS
GOSHEN         CLOUDY    72  51  47 N13       30.14S
LOGANSPORT +   PTSUNNY   70  54  56 N6        30.14S
PERU/GRISSOM   PTSUNNY   73  55  53 NE9G18    30.12F
ROCHESTER +    PTSUNNY   72  52  49 NE7       30.14S
SOUTH BEND     PTSUNNY   70  51  51 N6        30.15F
WARSAW +       PTSUNNY   70  52  52 N6        30.13F

$$

INZ006>009-017-018-025>027-241800-
NORTHEAST INDIANA

CITY           SKY/WX    TMP DP  RH WIND       PRES   REMARKS
ANGOLA *+      MOSUNNY   72  48  43 NE9       30.13F
AUBURN +       MOSUNNY   75  45  33 NE8G17    30.13S
FORT WAYNE     MOSUNNY   71  51  49 N13       30.12F
HUNTINGTON +   PTSUNNY   73  50  44 NE6       30.12S

$$

INZ028-029-035-036-043>045-051>053-241800-
WEST CENTRAL INDIANA

CITY           SKY/WX    TMP DP  RH WIND       PRES   REMARKS
GREENCASTLE +  PTSUNNY   70  59  68 N8        30.11F
LAFAYETTE      MOSUNNY   72  55  55 VRB7      30.13S
TERRE HAUTE    PTSUNNY   73  60  63 N8        30.11S

$$

INZ030>032-037>040-046>048-054>057-064-065-241800-
CENTRAL INDIANA

CITY           SKY/WX    TMP DP  RH WIND       PRES   REMARKS
CP ATTERBURY + MOSUNNY   73  54  49 NE12G17   30.10S
COLUMBUS       SUNNY     72  54  53 N17       30.09F
INDIANAPOLIS   PTSUNNY   73  54  51 N12       30.10S
-EAGLE CREEK   MOSUNNY   72  53  51 VRB6      30.10F
KOKOMO *+      MOSUNNY   73  54  49 NE13      30.12F
MARION +       MOSUNNY   71  52  50 E12       30.13S
MT COMFORT *+  MOSUNNY   73  57  56 NE10      30.10F
SHELBYVILLE    PTSUNNY   76  56  49 N10       30.09F
ZIONSVILLE +   MOSUNNY   72  53  52 NE10      30.12F

$$

INZ033-034-041-042-049-050-058-059-241800-
EAST CENTRAL INDIANA

CITY           SKY/WX    TMP DP  RH WIND       PRES   REMARKS
MUNCIE         PTSUNNY   71  50  47 NE16      30.11S

$$

INZ060-061-067>069-081>083-085>088-241800-
SOUTHWEST INDIANA

CITY           SKY/WX    TMP DP  RH WIND       PRES   REMARKS
EVANSVILLE     MOSUNNY   78  57  48 NE10      30.07F
HUNTINGBURG *+ MOSUNNY   75  57  53 NE10      30.07F
WASHINGTON +   CLOUDY    74  60  61 N8        30.08S

$$

INZ062-063-066-070>080-084-089>092-241800-
SOUTH CENTRAL AND SOUTHEAST INDIANA

CITY           SKY/WX    TMP DP  RH WIND       PRES   REMARKS
BLOOMINGTON    MOSUNNY   75  56  51 NE10      30.10S

$$



USA.gov is the U.S. government's official web portal to all federal, state and local government web resources and services.